Location: ???? ?????
(37.9132°N, 22.9869°E)
Time: 20:06:00
(UTC+00:00)

COSMOS 2455 - Pass Details

Date: 04 August 2024
Orbit: 898 x 911 km, 67.2° (Epoch: 14 September)

Event Time Altitude Azimuth Distance (km) Brightness Sun altitude
Rises 19:36:16 0° 330° (NNW) 3,547 7.3 -21.1°
Reaches altitude 10° 19:38:48 10° 330° (NNW) 2,602 6.3 -21.4°
Maximum altitude 19:44:50 77° 245° (WSW) 934 2.9 -22.3°
Enters shadow 19:46:57 42° 168° (SSE) 1,264 3.2 -22.6°
